Time,TemperatureF,DewpointF,PressureIn,WindDirection,WindDirectionDegrees,WindSpeedMPH,WindSpeedGustMPH,Humidity,HourlyPrecipIn,Conditions,Clouds,dailyrainin,SoftwareType,DateUTC
2014-02-22 00:01:00,33.9,33.6,29.89,West,279,0.0,0.0,99,0.00,,,0.00,Weather Center 2014,2014-02-22 05:01:00,
2014-02-22 00:06:00,33.9,33.6,29.90,WSW,244,0.0,0.0,99,0.00,,,0.00,Weather Center 2014,2014-02-22 05:06:00,
2014-02-22 00:11:00,34.1,33.8,29.90,WSW,244,0.0,0.0,99,0.00,,,0.00,Weather Center 2014,2014-02-22 05:11:00,
2014-02-22 00:16:00,34.3,34.0,29.90,West,266,0.0,0.0,99,0.00,,,0.00,Weather Center 2014,2014-02-22 05:16:00,
2014-02-22 00:21:00,34.7,34.4,29.90,SW,218,1.0,1.0,99,0.00,,,0.00,Weather Center 2014,2014-02-22 05:21:00,
2014-02-22 00:26:00,35.2,34.9,29.90,WSW,251,1.0,1.0,99,0.00,,,0.00,Weather Center 2014,2014-02-22 05:26:00,
2014-02-22 00:31:00,35.3,35.0,29.90,SW,222,0.0,0.0,99,0.00,Fog,,0.00,Weather Center 2014,2014-02-22 05:31:00,
2014-02-22 00:36:00,35.5,35.2,29.90,ESE,118,0.0,0.0,99,0.00,Fog,,0.00,Weather Center 2014,2014-02-22 05:36:00,
2014-02-22 00:41:00,35.5,35.2,29.90,South,175,0.0,0.0,99,0.00,Fog,,0.00,Weather Center 2014,2014-02-22 05:41:00,
2014-02-22 00:46:00,35.5,35.2,29.90,South,182,1.0,1.0,99,0.00,Fog,,0.00,Weather Center 2014,2014-02-22 05:46:00,
2014-02-22 00:51:00,35.5,35.2,29.91,WSW,257,1.0,1.0,99,0.00,Fog,,0.00,Weather Center 2014,2014-02-22 05:51:00,
2014-02-22 00:56:00,35.3,35.0,29.91,SSW,204,0.0,0.0,99,0.00,Fog,,0.00,Weather Center 2014,2014-02-22 05:56:00,
2014-02-22 01:01:00,35.3,35.0,29.90,West,278,1.0,1.0,99,0.00,Fog,,0.00,Weather Center 2014,2014-02-22 06:01:00,
2014-02-22 01:06:00,35.1,34.8,29.91,SSW,213,0.0,0.0,99,0.00,Fog,,0.00,Weather Center 2014,2014-02-22 06:06:00,
2014-02-22 01:11:00,35.0,34.7,29.91,SW,219,0.0,0.0,99,0.00,Fog,,0.00,Weather Center 2014,2014-02-22 06:11:00,
2014-02-22 01:16:00,34.9,34.6,29.91,SE,129,0.0,0.0,99,0.00,Fog,,0.00,Weather Center 2014,2014-02-22 06:16:00,
2014-02-22 01:21:00,34.9,34.6,29.91,ESE,122,0.0,0.0,99,0.00,Fog,,0.00,Weather Center 2014,2014-02-22 06:21:00,
2014-02-22 01:26:00,34.8,34.5,29.91,SSW,206,1.0,1.0,99,0.00,Fog,,0.00,Weather Center 2014,2014-02-22 06:26:00,
2014-02-22 01:31:00,34.6,34.3,29.92,WSW,243,0.0,0.0,99,0.00,,,0.00,Weather Center 2014,2014-02-22 06:31:00,
2014-02-22 01:36:00,34.3,34.0,29.92,WSW,258,1.0,1.0,99,0.00,,,0.00,Weather Center 2014,2014-02-22 06:36:00,
2014-02-22 01:41:00,34.3,34.0,29.92,WSW,242,0.0,0.0,99,0.00,,,0.00,Weather Center 2014,2014-02-22 06:41:00,
2014-02-22 01:46:00,34.5,34.2,29.92,SSW,199,0.0,0.0,99,0.00,,,0.00,Weather Center 2014,2014-02-22 06:46:00,
2014-02-22 01:51:00,34.5,34.2,29.92,West,265,1.0,1.0,99,0.00,,,0.00,Weather Center 2014,2014-02-22 06:51:00,
2014-02-22 01:56:00,34.4,34.1,29.92,WNW,284,1.0,1.0,99,0.00,,,0.00,Weather Center 2014,2014-02-22 06:56:00,
2014-02-22 02:01:00,34.6,34.3,29.92,SW,229,3.0,3.0,99,0.00,,,0.00,Weather Center 2014,2014-02-22 07:01:00,
2014-02-22 02:06:00,34.5,34.2,29.92,SSW,213,0.0,0.0,99,0.00,,,0.00,Weather Center 2014,2014-02-22 07:06:00,
2014-02-22 02:11:00,34.5,34.2,29.92,SSE,154,2.0,2.0,99,0.00,,,0.00,Weather Center 2014,2014-02-22 07:11:00,
2014-02-22 02:16:00,34.5,34.2,29.92,WNW,300,1.0,1.0,99,0.00,,,0.00,Weather Center 2014,2014-02-22 07:16:00,
2014-02-22 02:21:00,34.5,33.7,29.92,SSE,155,0.0,0.0,97,0.00,,,0.00,Weather Center 2014,2014-02-22 07:21:00,
2014-02-22 02:26:00,34.4,33.1,29.92,SE,146,0.0,0.0,95,0.00,,,0.00,Weather Center 2014,2014-02-22 07:26:00,
2014-02-22 02:31:00,34.4,32.9,29.92,SW,229,1.0,1.0,94,0.00,,,0.00,Weather Center 2014,2014-02-22 07:31:00,
2014-02-22 02:36:00,34.4,32.6,29.92,WSW,242,1.0,1.0,93,0.00,,,0.00,Weather Center 2014,2014-02-22 07:36:00,
2014-02-22 02:41:00,34.3,32.5,29.92,SW,230,0.0,0.0,93,0.00,,,0.00,Weather Center 2014,2014-02-22 07:41:00,
2014-02-22 02:46:00,34.4,32.3,29.92,SW,232,0.0,0.0,92,0.00,,,0.00,Weather Center 2014,2014-02-22 07:46:00,
2014-02-22 02:51:00,34.3,32.0,29.92,SSE,165,2.0,2.0,91,0.00,,,0.00,Weather Center 2014,2014-02-22 07:51:00,
2014-02-22 02:57:00,34.4,32.1,29.92,South,171,0.0,0.0,91,0.00,,,0.00,Weather Center 2014,2014-02-22 07:57:00,
2014-02-22 03:01:00,34.2,31.9,29.92,West,271,1.0,1.0,91,0.00,,,0.00,Weather Center 2014,2014-02-22 08:01:00,
2014-02-22 03:07:00,34.1,31.8,29.92,SSE,165,2.0,2.0,91,0.00,,,0.00,Weather Center 2014,2014-02-22 08:07:00,
2014-02-22 03:12:00,34.1,31.5,29.93,SSW,208,2.0,2.0,90,0.00,,,0.00,Weather Center 2014,2014-02-22 08:12:00,
2014-02-22 03:17:00,34.1,31.2,29.93,WSW,242,0.0,0.0,89,0.00,,,0.00,Weather Center 2014,2014-02-22 08:17:00,
2014-02-22 03:22:00,34.0,31.4,29.93,SSE,155,1.0,1.0,90,0.00,,,0.00,Weather Center 2014,2014-02-22 08:22:00,
2014-02-22 03:27:00,34.3,31.1,29.93,SSW,212,2.0,2.0,88,0.00,,,0.00,Weather Center 2014,2014-02-22 08:27:00,
2014-02-22 03:32:00,34.5,31.0,29.92,South,178,0.0,0.0,87,0.00,,,0.00,Weather Center 2014,2014-02-22 08:32:00,
2014-02-22 03:37:00,34.6,31.1,29.93,SSW,210,1.0,1.0,87,0.00,,,0.00,Weather Center 2014,2014-02-22 08:37:00,
2014-02-22 03:42:00,34.7,30.9,29.93,WSW,246,5.0,5.0,86,0.00,,,0.00,Weather Center 2014,2014-02-22 08:42:00,
2014-02-22 03:47:00,34.7,30.9,29.93,SE,134,0.0,0.0,86,0.00,,,0.00,Weather Center 2014,2014-02-22 08:47:00,
2014-02-22 03:52:00,34.6,30.9,29.93,West,267,0.0,0.0,86,0.00,,,0.00,Weather Center 2014,2014-02-22 08:52:00,
2014-02-22 03:57:00,34.6,30.9,29.93,SSW,205,5.0,5.0,86,0.00,,,0.00,Weather Center 2014,2014-02-22 08:57:00,
2014-02-22 04:02:00,34.4,30.9,29.93,SSW,194,0.0,0.0,87,0.00,,,0.00,Weather Center 2014,2014-02-22 09:02:00,
2014-02-22 04:07:00,33.8,30.6,29.93,WSW,244,0.0,0.0,88,0.00,,,0.00,Weather Center 2014,2014-02-22 09:07:00,
2014-02-22 04:12:00,33.6,30.4,29.93,South,178,0.0,0.0,88,0.00,,,0.00,Weather Center 2014,2014-02-22 09:12:00,
2014-02-22 04:17:00,33.3,30.4,29.93,WSW,242,1.0,1.0,89,0.00,,,0.00,Weather Center 2014,2014-02-22 09:17:00,
2014-02-22 04:22:00,33.1,30.2,29.93,SSE,148,0.0,0.0,89,0.00,,,0.00,Weather Center 2014,2014-02-22 09:22:00,
2014-02-22 04:27:00,32.8,30.2,29.94,WSW,253,0.0,0.0,90,0.00,,,0.00,Weather Center 2014,2014-02-22 09:27:00,
2014-02-22 04:32:00,32.9,30.3,29.94,South,182,0.0,0.0,90,0.00,,,0.00,Weather Center 2014,2014-02-22 09:32:00,
2014-02-22 04:37:00,32.5,29.9,29.94,SSW,205,0.0,0.0,90,0.00,,,0.00,Weather Center 2014,2014-02-22 09:37:00,
2014-02-22 04:42:00,32.5,29.9,29.94,SW,227,0.0,0.0,90,0.00,,,0.00,Weather Center 2014,2014-02-22 09:42:00,
2014-02-22 04:47:00,32.6,30.0,29.95,SSW,194,1.0,1.0,90,0.00,,,0.00,Weather Center 2014,2014-02-22 09:47:00,
2014-02-22 04:52:00,32.9,30.0,29.95,ESE,109,0.0,0.0,89,0.00,,,0.00,Weather Center 2014,2014-02-22 09:52:00,
2014-02-22 04:57:00,32.9,30.0,29.95,SW,216,1.0,1.0,89,0.00,,,0.00,Weather Center 2014,2014-02-22 09:57:00,
2014-02-22 05:02:00,33.0,30.1,29.95,SSW,195,0.0,0.0,89,0.00,,,0.00,Weather Center 2014,2014-02-22 10:02:00,
2014-02-22 05:07:00,33.0,30.1,29.96,WSW,240,0.0,0.0,89,0.00,,,0.00,Weather Center 2014,2014-02-22 10:07:00,
2014-02-22 05:12:00,33.3,30.1,29.96,SSE,159,0.0,0.0,88,0.00,,,0.00,Weather Center 2014,2014-02-22 10:12:00,
2014-02-22 05:17:00,33.4,30.0,29.97,SSE,162,1.0,1.0,87,0.00,,,0.00,Weather Center 2014,2014-02-22 10:17:00,
2014-02-22 05:22:00,33.3,30.1,29.97,SSE,156,0.0,0.0,88,0.00,,,0.00,Weather Center 2014,2014-02-22 10:22:00,
2014-02-22 05:27:00,33.5,30.1,29.97,South,171,1.0,1.0,87,0.00,,,0.00,Weather Center 2014,2014-02-22 10:27:00,
2014-02-22 05:32:00,33.8,30.1,29.97,SSW,211,1.0,1.0,86,0.00,,,0.00,Weather Center 2014,2014-02-22 10:32:00,
2014-02-22 05:37:00,33.8,30.1,29.97,SSE,152,1.0,1.0,86,0.00,,,0.00,Weather Center 2014,2014-02-22 10:37:00,
2014-02-22 05:42:00,33.8,30.1,29.97,WSW,258,0.0,0.0,86,0.00,,,0.00,Weather Center 2014,2014-02-22 10:42:00,
2014-02-22 05:47:00,33.8,30.1,29.98,SW,235,0.0,0.0,86,0.00,,,0.00,Weather Center 2014,2014-02-22 10:47:00,
2014-02-22 05:52:00,33.9,29.9,29.98,SW,223,3.0,3.0,85,0.00,,,0.00,Weather Center 2014,2014-02-22 10:52:00,
2014-02-22 05:57:00,33.9,29.9,29.98,SW,234,1.0,1.0,85,0.00,,,0.00,Weather Center 2014,2014-02-22 10:57:00,
2014-02-22 06:02:00,34.1,29.8,29.98,SSW,213,1.0,1.0,84,0.00,,,0.00,Weather Center 2014,2014-02-22 11:02:00,
2014-02-22 06:07:00,34.1,29.8,29.98,SSE,167,0.0,0.0,84,0.00,,,0.00,Weather Center 2014,2014-02-22 11:07:00,
2014-02-22 06:12:00,33.8,29.8,29.98,South,172,0.0,0.0,85,0.00,,,0.00,Weather Center 2014,2014-02-22 11:12:00,
2014-02-22 06:17:00,33.7,29.7,29.98,WNW,295,3.0,3.0,85,0.00,,,0.00,Weather Center 2014,2014-02-22 11:17:00,
2014-02-22 06:22:00,33.6,29.6,29.98,SSW,210,1.0,1.0,85,0.00,,,0.00,Weather Center 2014,2014-02-22 11:22:00,
2014-02-22 06:27:00,33.7,29.7,29.99,WNW,286,1.0,1.0,85,0.00,,,0.00,Weather Center 2014,2014-02-22 11:27:00,
2014-02-22 06:32:00,33.6,29.6,29.99,SSW,194,0.0,0.0,85,0.00,Fair,,0.00,Weather Center 2014,2014-02-22 11:32:00,
2014-02-22 06:37:00,33.5,29.5,29.99,WSW,244,0.0,0.0,85,0.00,Fair,,0.00,Weather Center 2014,2014-02-22 11:37:00,
2014-02-22 06:42:00,33.7,29.7,29.99,SSW,198,2.0,2.0,85,0.00,Fair,,0.00,Weather Center 2014,2014-02-22 11:42:00,
2014-02-22 06:47:00,33.7,29.4,29.99,SSW,199,1.0,1.0,84,0.00,Fair,,0.00,Weather Center 2014,2014-02-22 11:47:00,
2014-02-22 06:52:00,33.7,29.7,29.99,SSW,210,0.0,0.0,85,0.00,Fair,,0.00,Weather Center 2014,2014-02-22 11:52:00,
2014-02-22 06:57:00,33.8,29.5,29.99,SSW,198,1.0,1.0,84,0.00,Fair,,0.00,Weather Center 2014,2014-02-22 11:57:00,
2014-02-22 07:02:00,34.2,29.6,30.00,SE,126,2.0,2.0,83,0.00,Fair,,0.00,Weather Center 2014,2014-02-22 12:02:00,
2014-02-22 07:07:00,34.4,29.8,30.00,SSW,193,0.0,0.0,83,0.00,Fair,,0.00,Weather Center 2014,2014-02-22 12:07:00,
2014-02-22 07:12:00,34.6,30.0,30.00,SSE,163,4.0,4.0,83,0.00,Fair,,0.00,Weather Center 2014,2014-02-22 12:12:00,
2014-02-22 07:17:00,34.8,29.9,30.00,SSW,213,0.0,0.0,82,0.00,Fair,,0.00,Weather Center 2014,2014-02-22 12:17:00,
2014-02-22 07:22:00,34.8,29.9,29.99,SSW,193,1.0,1.0,82,0.00,Fair,,0.00,Weather Center 2014,2014-02-22 12:22:00,
2014-02-22 07:27:00,34.9,30.0,30.00,SSW,206,0.0,0.0,82,0.00,Fair,,0.00,Weather Center 2014,2014-02-22 12:27:00,
2014-02-22 07:32:00,35.1,29.9,30.00,SW,228,1.0,1.0,81,0.00,,,0.00,Weather Center 2014,2014-02-22 12:32:00,
2014-02-22 07:37:00,35.1,29.9,30.00,SSW,205,1.0,1.0,81,0.00,,,0.00,Weather Center 2014,2014-02-22 12:37:00,
2014-02-22 07:42:00,35.0,29.8,30.01,West,279,1.0,1.0,81,0.00,,,0.00,Weather Center 2014,2014-02-22 12:42:00,
2014-02-22 07:47:00,34.7,29.8,30.01,WNW,283,1.0,1.0,82,0.00,,,0.00,Weather Center 2014,2014-02-22 12:47:00,
2014-02-22 07:52:00,34.6,29.7,30.01,SW,223,1.0,1.0,82,0.00,,,0.00,Weather Center 2014,2014-02-22 12:52:00,
2014-02-22 07:57:00,35.0,29.8,30.01,SW,236,1.0,1.0,81,0.00,,,0.00,Weather Center 2014,2014-02-22 12:57:00,
2014-02-22 08:02:00,35.8,30.2,30.01,South,186,1.0,1.0,80,0.00,,,0.00,Weather Center 2014,2014-02-22 13:02:00,
2014-02-22 08:07:00,36.9,30.7,30.01,SW,234,2.0,2.0,78,0.00,,,0.00,Weather Center 2014,2014-02-22 13:07:00,
2014-02-22 08:12:00,37.6,30.4,30.01,WSW,250,2.0,2.0,75,0.00,,,0.00,Weather Center 2014,2014-02-22 13:12:00,
2014-02-22 08:17:00,38.4,30.8,30.01,SW,223,2.0,2.0,74,0.00,,,0.00,Weather Center 2014,2014-02-22 13:17:00,
2014-02-22 08:22:00,38.8,30.9,30.01,SSW,202,5.0,5.0,73,0.00,,,0.00,Weather Center 2014,2014-02-22 13:22:00,
2014-02-22 08:27:00,39.4,30.4,30.01,SSE,163,0.0,0.0,70,0.00,,,0.00,Weather Center 2014,2014-02-22 13:27:00,
2014-02-22 08:32:00,40.0,30.3,30.01,SE,143,0.0,0.0,68,0.00,Fair,,0.00,Weather Center 2014,2014-02-22 13:32:00,
2014-02-22 08:37:00,40.2,29.4,30.01,West,260,1.0,1.0,65,0.00,Fair,,0.00,Weather Center 2014,2014-02-22 13:37:00,
2014-02-22 08:43:00,39.9,29.1,30.01,SSE,157,1.0,1.0,65,0.00,Fair,,0.00,Weather Center 2014,2014-02-22 13:43:00,
2014-02-22 08:48:00,39.8,29.4,30.01,SSE,154,0.0,0.0,66,0.00,Fair,,0.00,Weather Center 2014,2014-02-22 13:48:00,
2014-02-22 08:53:00,39.7,28.2,30.01,SW,236,5.0,5.0,63,0.00,Fair,,0.00,Weather Center 2014,2014-02-22 13:53:00,
2014-02-22 08:58:00,39.5,28.3,30.02,ESE,122,1.0,1.0,64,0.00,Fair,,0.00,Weather Center 2014,2014-02-22 13:58:00,
2014-02-22 09:03:00,39.5,28.0,30.01,WSW,246,7.0,7.0,63,0.00,Fair,,0.00,Weather Center 2014,2014-02-22 14:03:00,
2014-02-22 09:08:00,39.3,28.5,30.02,West,265,6.0,6.0,65,0.00,Fair,,0.00,Weather Center 2014,2014-02-22 14:08:00,
2014-02-22 09:13:00,39.2,28.1,30.02,WSW,237,7.0,7.0,64,0.00,Fair,,0.00,Weather Center 2014,2014-02-22 14:13:00,
2014-02-22 09:18:00,39.4,27.9,30.02,SSE,167,4.0,4.0,63,0.00,Fair,,0.00,Weather Center 2014,2014-02-22 14:18:00,
2014-02-22 09:23:00,39.8,27.9,30.02,SSE,153,5.0,5.0,62,0.00,Fair,,0.00,Weather Center 2014,2014-02-22 14:23:00,
2014-02-22 09:28:00,40.2,26.6,30.02,West,270,2.0,2.0,58,0.00,Fair,,0.00,Weather Center 2014,2014-02-22 14:28:00,
2014-02-22 09:33:00,40.5,27.3,30.02,WSW,240,2.0,2.0,59,0.00,Fair,,0.00,Weather Center 2014,2014-02-22 14:33:00,
2014-02-22 09:38:00,40.8,27.6,30.03,West,274,8.0,8.0,59,0.00,Fair,,0.00,Weather Center 2014,2014-02-22 14:38:00,
2014-02-22 09:43:00,40.8,26.8,30.03,WSW,247,5.0,5.0,57,0.00,Fair,,0.00,Weather Center 2014,2014-02-22 14:43:00,
2014-02-22 09:48:00,41.1,27.0,30.03,SE,140,5.0,5.0,57,0.00,Fair,,0.00,Weather Center 2014,2014-02-22 14:48:00,
2014-02-22 09:53:00,41.3,26.4,30.02,SSW,193,1.0,1.0,55,0.00,Fair,,0.00,Weather Center 2014,2014-02-22 14:53:00,
2014-02-22 09:58:00,41.9,26.9,30.02,WSW,238,7.0,7.0,55,0.00,Fair,,0.00,Weather Center 2014,2014-02-22 14:58:00,
2014-02-22 10:03:00,42.5,27.5,30.01,West,268,2.0,2.0,55,0.00,Fair,,0.00,Weather Center 2014,2014-02-22 15:03:00,
2014-02-22 10:08:00,42.8,25.9,30.01,SSE,150,1.0,1.0,51,0.00,Fair,,0.00,Weather Center 2014,2014-02-22 15:08:00,
2014-02-22 10:13:00,43.1,25.3,30.01,SE,133,5.0,5.0,49,0.00,Fair,,0.00,Weather Center 2014,2014-02-22 15:13:00,
2014-02-22 10:18:00,43.6,25.2,30.01,SSE,153,4.0,4.0,48,0.00,Fair,,0.00,Weather Center 2014,2014-02-22 15:18:00,
2014-02-22 10:23:00,44.0,25.1,30.01,SW,232,4.0,4.0,47,0.00,Fair,,0.00,Weather Center 2014,2014-02-22 15:23:00,
2014-02-22 10:28:00,44.4,25.4,30.01,WNW,288,3.0,3.0,47,0.00,Fair,,0.00,Weather Center 2014,2014-02-22 15:28:00,
2014-02-22 10:33:00,44.9,24.9,30.00,South,186,2.0,2.0,45,0.00,Fair,,0.00,Weather Center 2014,2014-02-22 15:33:00,
2014-02-22 10:38:00,45.3,26.8,30.00,SSE,158,0.0,0.0,48,0.00,Fair,,0.00,Weather Center 2014,2014-02-22 15:38:00,
2014-02-22 10:43:00,45.5,25.4,30.00,SSE,156,2.0,2.0,45,0.00,Fair,,0.00,Weather Center 2014,2014-02-22 15:43:00,
2014-02-22 10:48:00,45.3,24.7,30.00,SSW,209,3.0,3.0,44,0.00,Fair,,0.00,Weather Center 2014,2014-02-22 15:48:00,
2014-02-22 10:53:00,45.3,25.2,30.00,SSW,211,3.0,3.0,45,0.00,Fair,,0.00,Weather Center 2014,2014-02-22 15:53:00,
2014-02-22 10:58:00,45.3,25.8,30.00,SE,136,0.0,0.0,46,0.00,Fair,,0.00,Weather Center 2014,2014-02-22 15:58:00,
2014-02-22 11:03:00,45.3,24.7,30.00,SW,233,4.0,4.0,44,0.00,Fair,,0.00,Weather Center 2014,2014-02-22 16:03:00,
2014-02-22 11:08:00,45.5,24.3,30.00,SSE,157,1.0,1.0,43,0.00,Fair,,0.00,Weather Center 2014,2014-02-22 16:08:00,
2014-02-22 11:13:00,45.9,25.8,29.99,SSE,157,1.0,1.0,45,0.00,Fair,,0.00,Weather Center 2014,2014-02-22 16:13:00,
2014-02-22 11:18:00,45.9,25.8,29.99,SSW,209,3.0,3.0,45,0.00,Fair,,0.00,Weather Center 2014,2014-02-22 16:18:00,
2014-02-22 11:23:00,46.0,24.2,29.99,SW,216,2.0,2.0,42,0.00,Fair,,0.00,Weather Center 2014,2014-02-22 16:23:00,
2014-02-22 11:28:00,46.2,26.6,29.99,SE,142,0.0,0.0,46,0.00,Fair,,0.00,Weather Center 2014,2014-02-22 16:28:00,
2014-02-22 11:33:00,46.6,25.3,29.99,SE,129,0.0,0.0,43,0.00,Fair,,0.00,Weather Center 2014,2014-02-22 16:33:00,
2014-02-22 11:38:00,46.8,24.9,29.99,East,86,1.0,1.0,42,0.00,Fair,,0.00,Weather Center 2014,2014-02-22 16:38:00,
2014-02-22 11:43:00,46.9,25.0,29.98,SW,215,1.0,1.0,42,0.00,Fair,,0.00,Weather Center 2014,2014-02-22 16:43:00,
2014-02-22 11:48:00,46.8,24.9,29.98,East,89,0.0,0.0,42,0.00,Fair,,0.00,Weather Center 2014,2014-02-22 16:48:00,
2014-02-22 11:53:00,46.9,26.1,29.98,SSE,156,0.0,0.0,44,0.00,Fair,,0.00,Weather Center 2014,2014-02-22 16:53:00,
2014-02-22 11:58:00,46.9,25.0,29.97,SE,127,3.0,3.0,42,0.00,Fair,,0.00,Weather Center 2014,2014-02-22 16:58:00,
2014-02-22 12:03:00,46.9,23.9,29.97,SSW,205,3.0,3.0,40,0.00,Fair,,0.00,Weather Center 2014,2014-02-22 17:03:00,
2014-02-22 12:08:00,47.3,24.8,29.97,WSW,245,1.0,1.0,41,0.00,Fair,,0.00,Weather Center 2014,2014-02-22 17:08:00,
2014-02-22 12:13:00,47.4,24.3,29.96,SSW,198,4.0,4.0,40,0.00,Fair,,0.00,Weather Center 2014,2014-02-22 17:13:00,
2014-02-22 12:18:00,47.4,23.7,29.96,WSW,245,11.0,11.0,39,0.00,Fair,,0.00,Weather Center 2014,2014-02-22 17:18:00,
2014-02-22 12:23:00,47.6,24.5,29.96,SW,231,3.0,3.0,40,0.00,Fair,,0.00,Weather Center 2014,2014-02-22 17:23:00,
2014-02-22 12:28:00,48.1,24.9,29.96,SE,134,0.0,0.0,40,0.00,Fair,,0.00,Weather Center 2014,2014-02-22 17:28:00,
2014-02-22 12:33:00,48.5,22.8,29.96,SW,223,2.0,2.0,36,0.00,Fair,,0.00,Weather Center 2014,2014-02-22 17:33:00,
2014-02-22 12:38:00,48.6,22.2,29.96,WSW,254,6.0,6.0,35,0.00,Fair,,0.00,Weather Center 2014,2014-02-22 17:38:00,
2014-02-22 12:43:00,48.5,24.1,29.96,East,93,5.0,5.0,38,0.00,Fair,,0.00,Weather Center 2014,2014-02-22 17:43:00,
2014-02-22 12:48:00,48.9,23.8,29.95,NNE,20,1.0,1.0,37,0.00,Fair,,0.00,Weather Center 2014,2014-02-22 17:48:00,
2014-02-22 12:53:00,49.1,25.2,29.95,West,261,7.0,7.0,39,0.00,Fair,,0.00,Weather Center 2014,2014-02-22 17:53:00,
2014-02-22 12:58:00,49.0,23.2,29.95,West,267,7.0,7.0,36,0.00,Fair,,0.00,Weather Center 2014,2014-02-22 17:58:00,
2014-02-22 13:03:00,49.3,24.8,29.95,West,259,5.0,5.0,38,0.00,Fair,,0.00,Weather Center 2014,2014-02-22 18:03:00,
2014-02-22 13:08:00,49.3,22.8,29.94,SW,232,5.0,5.0,35,0.00,Fair,,0.00,Weather Center 2014,2014-02-22 18:08:00,
2014-02-22 13:13:00,49.2,23.4,29.94,SW,231,4.0,4.0,36,0.00,Fair,,0.00,Weather Center 2014,2014-02-22 18:13:00,
2014-02-22 13:18:00,49.1,22.6,29.93,SSW,207,5.0,5.0,35,0.00,Fair,,0.00,Weather Center 2014,2014-02-22 18:18:00,
2014-02-22 13:23:00,49.2,22.7,29.93,SE,146,5.0,5.0,35,0.00,Fair,,0.00,Weather Center 2014,2014-02-22 18:23:00,
2014-02-22 13:28:00,49.1,22.6,29.93,SW,233,2.0,2.0,35,0.00,Fair,,0.00,Weather Center 2014,2014-02-22 18:28:00,
2014-02-22 13:33:00,49.0,23.9,29.93,SSE,156,1.0,1.0,37,0.00,Fair,,0.00,Weather Center 2014,2014-02-22 18:33:00,
2014-02-22 13:38:00,49.3,22.8,29.92,SSW,192,4.0,4.0,35,0.00,Fair,,0.00,Weather Center 2014,2014-02-22 18:38:00,
2014-02-22 13:43:00,49.6,23.8,29.92,SE,125,2.0,2.0,36,0.00,Fair,,0.00,Weather Center 2014,2014-02-22 18:43:00,
2014-02-22 13:48:00,49.3,22.8,29.91,East,84,1.0,1.0,35,0.00,Fair,,0.00,Weather Center 2014,2014-02-22 18:48:00,
2014-02-22 13:53:00,49.3,22.8,29.91,SSW,208,0.0,0.0,35,0.00,Fair,,0.00,Weather Center 2014,2014-02-22 18:53:00,
2014-02-22 13:58:00,49.4,22.2,29.91,ESE,119,2.0,2.0,34,0.00,Fair,,0.00,Weather Center 2014,2014-02-22 18:58:00,
2014-02-22 14:03:00,49.3,21.4,29.91,SSE,150,6.0,6.0,33,0.00,Fair,,0.00,Weather Center 2014,2014-02-22 19:03:00,
2014-02-22 14:08:00,49.4,22.2,29.91,SSE,163,2.0,2.0,34,0.00,Fair,,0.00,Weather Center 2014,2014-02-22 19:08:00,
2014-02-22 14:14:00,49.3,22.8,29.91,WSW,245,0.0,0.0,35,0.00,Fair,,0.00,Weather Center 2014,2014-02-22 19:14:00,
2014-02-22 14:19:00,49.1,21.3,29.91,SW,218,6.0,6.0,33,0.00,Fair,,0.00,Weather Center 2014,2014-02-22 19:19:00,
2014-02-22 14:24:00,48.9,21.8,29.90,ESE,112,4.0,4.0,34,0.00,Fair,,0.00,Weather Center 2014,2014-02-22 19:24:00,
2014-02-22 14:29:00,48.7,22.3,29.90,SSE,161,7.0,7.0,35,0.00,Fair,,0.00,Weather Center 2014,2014-02-22 19:29:00,
2014-02-22 14:34:00,48.5,21.4,29.90,SE,126,4.0,4.0,34,0.00,Fair,,0.00,Weather Center 2014,2014-02-22 19:34:00,
2014-02-22 14:39:00,48.2,21.8,29.90,SSE,148,2.0,2.0,35,0.00,Fair,,0.00,Weather Center 2014,2014-02-22 19:39:00,
2014-02-22 14:44:00,47.7,22.7,29.91,South,177,1.0,1.0,37,0.00,Fair,,0.00,Weather Center 2014,2014-02-22 19:44:00,
2014-02-22 14:49:00,47.5,21.9,29.91,SW,226,3.0,3.0,36,0.00,Fair,,0.00,Weather Center 2014,2014-02-22 19:49:00,
2014-02-22 14:54:00,47.5,21.9,29.90,ESE,117,4.0,4.0,36,0.00,Fair,,0.00,Weather Center 2014,2014-02-22 19:54:00,
2014-02-22 14:59:00,47.4,22.5,29.91,WSW,245,2.0,2.0,37,0.00,Fair,,0.00,Weather Center 2014,2014-02-22 19:59:00,
2014-02-22 15:04:00,47.2,22.9,29.91,SSW,207,9.0,9.0,38,0.00,Fair,,0.00,Weather Center 2014,2014-02-22 20:04:00,
2014-02-22 15:09:00,47.0,22.1,29.91,ESE,122,2.0,2.0,37,0.00,Fair,,0.00,Weather Center 2014,2014-02-22 20:09:00,
2014-02-22 15:14:00,46.7,22.5,29.91,South,171,6.0,6.0,38,0.00,Fair,,0.00,Weather Center 2014,2014-02-22 20:14:00,
2014-02-22 15:19:00,46.7,22.5,29.91,SSW,211,8.0,8.0,38,0.00,Fair,,0.00,Weather Center 2014,2014-02-22 20:19:00,
2014-02-22 15:24:00,46.4,22.2,29.92,SSW,195,5.0,5.0,38,0.00,Fair,,0.00,Weather Center 2014,2014-02-22 20:24:00,
2014-02-22 15:29:00,46.3,22.7,29.92,SW,214,1.0,1.0,39,0.00,Fair,,0.00,Weather Center 2014,2014-02-22 20:29:00,
2014-02-22 15:34:00,46.1,23.1,29.92,South,188,6.0,6.0,40,0.00,,,0.00,Weather Center 2014,2014-02-22 20:34:00,
2014-02-22 15:39:00,46.1,22.5,29.92,WSW,240,2.0,2.0,39,0.00,,,0.00,Weather Center 2014,2014-02-22 20:39:00,
2014-02-22 15:44:00,46.3,22.7,29.92,SE,146,1.0,1.0,39,0.00,,,0.00,Weather Center 2014,2014-02-22 20:44:00,
2014-02-22 15:49:00,46.2,23.2,29.92,ESE,110,6.0,6.0,40,0.00,,,0.00,Weather Center 2014,2014-02-22 20:49:00,
2014-02-22 15:54:00,46.2,23.2,29.91,SSE,168,0.0,0.0,40,0.00,,,0.00,Weather Center 2014,2014-02-22 20:54:00,
2014-02-22 15:59:00,46.1,23.1,29.91,SE,144,4.0,4.0,40,0.00,,,0.00,Weather Center 2014,2014-02-22 20:59:00,
2014-02-22 16:04:00,45.9,23.5,29.91,SSW,204,2.0,2.0,41,0.00,,,0.00,Weather Center 2014,2014-02-22 21:04:00,
2014-02-22 16:09:00,45.9,23.5,29.91,SW,236,2.0,2.0,41,0.00,,,0.00,Weather Center 2014,2014-02-22 21:09:00,
2014-02-22 16:14:00,45.9,23.5,29.91,SW,216,1.0,1.0,41,0.00,,,0.00,Weather Center 2014,2014-02-22 21:14:00,
2014-02-22 16:19:00,45.9,23.0,29.91,SSE,159,2.0,2.0,40,0.00,,,0.00,Weather Center 2014,2014-02-22 21:19:00,
2014-02-22 16:24:00,45.7,23.9,29.91,SSE,151,0.0,0.0,42,0.00,,,0.00,Weather Center 2014,2014-02-22 21:24:00,
2014-02-22 16:29:00,45.7,23.4,29.92,SSE,156,1.0,1.0,41,0.00,,,0.00,Weather Center 2014,2014-02-22 21:29:00,
2014-02-22 16:34:00,45.7,23.9,29.92,SSW,202,0.0,0.0,42,0.00,Fair,,0.00,Weather Center 2014,2014-02-22 21:34:00,
2014-02-22 16:39:00,45.5,23.2,29.92,SSW,200,5.0,5.0,41,0.00,Fair,,0.00,Weather Center 2014,2014-02-22 21:39:00,
2014-02-22 16:44:00,45.5,23.2,29.92,West,271,2.0,2.0,41,0.00,Fair,,0.00,Weather Center 2014,2014-02-22 21:44:00,
2014-02-22 16:49:00,45.3,23.0,29.92,SE,136,2.0,2.0,41,0.00,Fair,,0.00,Weather Center 2014,2014-02-22 21:49:00,
2014-02-22 16:54:00,45.3,23.0,29.92,SSE,150,0.0,0.0,41,0.00,Fair,,0.00,Weather Center 2014,2014-02-22 21:54:00,
2014-02-22 16:59:00,45.2,23.5,29.92,SSE,157,1.0,1.0,42,0.00,Fair,,0.00,Weather Center 2014,2014-02-22 21:59:00,
2014-02-22 17:04:00,45.0,23.3,29.92,East,98,4.0,4.0,42,0.00,Fair,,0.00,Weather Center 2014,2014-02-22 22:04:00,
2014-02-22 17:09:00,44.4,23.3,29.92,SSE,163,3.0,3.0,43,0.00,Fair,,0.00,Weather Center 2014,2014-02-22 22:09:00,
2014-02-22 17:14:00,44.5,23.4,29.92,SSE,167,4.0,4.0,43,0.00,Fair,,0.00,Weather Center 2014,2014-02-22 22:14:00,
2014-02-22 17:19:00,44.4,23.9,29.92,SSE,150,2.0,2.0,44,0.00,Fair,,0.00,Weather Center 2014,2014-02-22 22:19:00,
2014-02-22 17:24:00,43.9,24.0,29.93,ESE,120,0.0,0.0,45,0.00,Fair,,0.00,Weather Center 2014,2014-02-22 22:24:00,
2014-02-22 17:29:00,43.7,23.2,29.93,SW,228,1.0,1.0,44,0.00,Fair,,0.00,Weather Center 2014,2014-02-22 22:29:00,
2014-02-22 17:34:00,43.7,23.2,29.93,SSE,155,0.0,0.0,44,0.00,Fair,,0.00,Weather Center 2014,2014-02-22 22:34:00,
2014-02-22 17:39:00,43.6,23.1,29.93,SE,134,0.0,0.0,44,0.00,Fair,,0.00,Weather Center 2014,2014-02-22 22:39:00,
2014-02-22 17:44:00,43.4,23.5,29.93,East,99,1.0,1.0,45,0.00,Fair,,0.00,Weather Center 2014,2014-02-22 22:44:00,
2014-02-22 17:49:00,43.2,23.8,29.94,ESE,119,0.0,0.0,46,0.00,Fair,,0.00,Weather Center 2014,2014-02-22 22:49:00,
2014-02-22 17:54:00,43.0,23.7,29.94,WSW,240,0.0,0.0,46,0.00,Fair,,0.00,Weather Center 2014,2014-02-22 22:54:00,
2014-02-22 17:59:00,42.6,23.3,29.94,SE,133,1.0,1.0,46,0.00,Fair,,0.00,Weather Center 2014,2014-02-22 22:59:00,
2014-02-22 18:04:00,42.5,23.7,29.94,South,182,0.0,0.0,47,0.00,Fair,,0.00,Weather Center 2014,2014-02-22 23:04:00,
2014-02-22 18:09:00,42.1,23.8,29.94,SE,132,0.0,0.0,48,0.00,Fair,,0.00,Weather Center 2014,2014-02-22 23:09:00,
2014-02-22 18:14:00,41.9,23.7,29.94,SSW,206,0.0,0.0,48,0.00,Fair,,0.00,Weather Center 2014,2014-02-22 23:14:00,
2014-02-22 18:19:00,41.6,24.4,29.94,ESE,117,2.0,2.0,50,0.00,Fair,,0.00,Weather Center 2014,2014-02-22 23:19:00,
2014-02-22 18:24:00,41.1,24.4,29.95,SSW,209,0.0,0.0,51,0.00,Fair,,0.00,Weather Center 2014,2014-02-22 23:24:00,
2014-02-22 18:29:00,40.5,23.8,29.95,SSE,153,0.0,0.0,51,0.00,Fair,,0.00,Weather Center 2014,2014-02-22 23:29:00,
2014-02-22 18:34:00,40.7,24.5,29.95,ESE,113,1.0,1.0,52,0.00,Fair,,0.00,Weather Center 2014,2014-02-22 23:34:00,
2014-02-22 18:39:00,40.7,24.5,29.95,SSE,161,0.0,0.0,52,0.00,Fair,,0.00,Weather Center 2014,2014-02-22 23:39:00,
2014-02-22 18:44:00,40.5,24.7,29.95,SSE,148,0.0,0.0,53,0.00,Fair,,0.00,Weather Center 2014,2014-02-22 23:44:00,
2014-02-22 18:49:00,40.0,24.3,29.95,SE,134,1.0,1.0,53,0.00,Fair,,0.00,Weather Center 2014,2014-02-22 23:49:00,
2014-02-22 18:54:00,39.9,24.6,29.96,South,170,0.0,0.0,54,0.00,Fair,,0.00,Weather Center 2014,2014-02-22 23:54:00,
2014-02-22 18:59:00,39.6,24.8,29.95,SSW,194,0.0,0.0,55,0.00,Fair,,0.00,Weather Center 2014,2014-02-22 23:59:00,
2014-02-22 19:04:00,38.9,25.4,29.95,SSW,212,0.0,0.0,58,0.00,Fair,,0.00,Weather Center 2014,2014-02-23 00:04:00,
2014-02-22 19:09:00,38.3,25.2,29.96,SW,236,0.0,0.0,59,0.00,Fair,,0.00,Weather Center 2014,2014-02-23 00:09:00,
2014-02-22 19:14:00,38.1,25.5,29.95,South,169,0.0,0.0,60,0.00,Fair,,0.00,Weather Center 2014,2014-02-23 00:14:00,
2014-02-22 19:19:00,37.6,25.0,29.96,SSW,206,0.0,0.0,60,0.00,Fair,,0.00,Weather Center 2014,2014-02-23 00:19:00,
2014-02-22 19:24:00,37.2,25.0,29.96,West,262,0.0,0.0,61,0.00,Fair,,0.00,Weather Center 2014,2014-02-23 00:24:00,
2014-02-22 19:29:00,36.6,25.6,29.96,SW,236,0.0,0.0,64,0.00,Fair,,0.00,Weather Center 2014,2014-02-23 00:29:00,
2014-02-22 19:34:00,36.1,25.5,29.96,South,178,0.0,0.0,65,0.00,Fair,,0.00,Weather Center 2014,2014-02-23 00:34:00,
2014-02-22 19:39:00,36.0,25.0,29.96,SSW,203,0.0,0.0,64,0.00,Fair,,0.00,Weather Center 2014,2014-02-23 00:39:00,
2014-02-22 19:44:00,36.0,25.4,29.96,SSW,206,0.0,0.0,65,0.00,Fair,,0.00,Weather Center 2014,2014-02-23 00:44:00,
2014-02-22 19:49:00,35.9,25.3,29.96,SW,217,0.0,0.0,65,0.00,Fair,,0.00,Weather Center 2014,2014-02-23 00:49:00,
2014-02-22 19:54:00,36.0,24.6,29.96,SSE,147,0.0,0.0,63,0.00,Fair,,0.00,Weather Center 2014,2014-02-23 00:54:00,
2014-02-22 20:00:00,36.4,25.4,29.96,SE,139,0.0,0.0,64,0.00,Fair,,0.00,Weather Center 2014,2014-02-23 01:00:00,
2014-02-22 20:05:00,36.1,25.1,29.97,West,273,0.0,0.0,64,0.00,Fair,,0.00,Weather Center 2014,2014-02-23 01:05:00,
2014-02-22 20:10:00,36.1,25.1,29.97,NW,311,0.0,0.0,64,0.00,Fair,,0.00,Weather Center 2014,2014-02-23 01:10:00,
2014-02-22 20:15:00,36.8,25.0,29.97,SE,126,0.0,0.0,62,0.00,Fair,,0.00,Weather Center 2014,2014-02-23 01:15:00,
2014-02-22 20:20:00,37.0,25.2,29.97,ESE,107,0.0,0.0,62,0.00,Fair,,0.00,Weather Center 2014,2014-02-23 01:20:00,
2014-02-22 20:25:00,37.2,24.6,29.97,SW,224,1.0,1.0,60,0.00,Fair,,0.00,Weather Center 2014,2014-02-23 01:25:00,
2014-02-22 20:30:00,38.3,24.0,29.97,SW,232,3.0,3.0,56,0.00,Fair,,0.00,Weather Center 2014,2014-02-23 01:30:00,
2014-02-22 20:35:00,39.2,24.0,29.97,SE,142,0.0,0.0,54,0.00,Fair,,0.00,Weather Center 2014,2014-02-23 01:35:00,
2014-02-22 20:40:00,39.5,23.8,29.97,SSE,147,1.0,1.0,53,0.00,Fair,,0.00,Weather Center 2014,2014-02-23 01:40:00,
2014-02-22 20:45:00,40.4,23.2,29.98,SE,142,0.0,0.0,50,0.00,Fair,,0.00,Weather Center 2014,2014-02-23 01:45:00,
2014-02-22 20:50:00,40.6,23.4,29.98,ESE,119,1.0,1.0,50,0.00,Fair,,0.00,Weather Center 2014,2014-02-23 01:50:00,
2014-02-22 20:55:00,40.7,23.0,29.98,ESE,120,0.0,0.0,49,0.00,Fair,,0.00,Weather Center 2014,2014-02-23 01:55:00,
2014-02-22 21:00:00,41.4,23.2,29.98,South,178,1.0,1.0,48,0.00,Fair,,0.00,Weather Center 2014,2014-02-23 02:00:00,
2014-02-22 21:05:00,41.6,22.9,29.98,SSW,200,4.0,4.0,47,0.00,Fair,,0.00,Weather Center 2014,2014-02-23 02:05:00,
2014-02-22 21:10:00,41.9,23.2,29.98,South,181,1.0,1.0,47,0.00,Fair,,0.00,Weather Center 2014,2014-02-23 02:10:00,
2014-02-22 21:15:00,41.9,23.2,29.98,SSW,211,0.0,0.0,47,0.00,Fair,,0.00,Weather Center 2014,2014-02-23 02:15:00,
2014-02-22 21:20:00,41.7,23.5,29.98,SW,231,0.0,0.0,48,0.00,Fair,,0.00,Weather Center 2014,2014-02-23 02:20:00,
2014-02-22 21:25:00,41.6,22.9,29.98,SW,231,5.0,5.0,47,0.00,Fair,,0.00,Weather Center 2014,2014-02-23 02:25:00,
2014-02-22 21:30:00,41.8,23.6,29.98,SSW,211,6.0,6.0,48,0.00,Fair,,0.00,Weather Center 2014,2014-02-23 02:30:00,
2014-02-22 21:35:00,41.9,23.2,29.98,NE,50,0.0,0.0,47,0.00,Fair,,0.00,Weather Center 2014,2014-02-23 02:35:00,
2014-02-22 21:40:00,41.8,23.1,29.98,SE,146,2.0,2.0,47,0.00,Fair,,0.00,Weather Center 2014,2014-02-23 02:40:00,
2014-02-22 21:45:00,41.6,23.4,29.99,WSW,254,0.0,0.0,48,0.00,Fair,,0.00,Weather Center 2014,2014-02-23 02:45:00,
2014-02-22 21:50:00,41.5,22.8,29.98,South,190,2.0,2.0,47,0.00,Fair,,0.00,Weather Center 2014,2014-02-23 02:50:00,
2014-02-22 21:55:00,41.7,23.0,29.99,SW,225,0.0,0.0,47,0.00,Fair,,0.00,Weather Center 2014,2014-02-23 02:55:00,
2014-02-22 22:00:00,41.7,23.0,29.99,South,184,1.0,1.0,47,0.00,Fair,,0.00,Weather Center 2014,2014-02-23 03:00:00,
2014-02-22 22:05:00,41.6,22.9,29.99,SW,232,4.0,4.0,47,0.00,Fair,,0.00,Weather Center 2014,2014-02-23 03:05:00,
2014-02-22 22:10:00,41.6,22.9,29.99,ESE,105,5.0,5.0,47,0.00,Fair,,0.00,Weather Center 2014,2014-02-23 03:10:00,
2014-02-22 22:15:00,41.6,22.9,29.99,East,100,0.0,0.0,47,0.00,Fair,,0.00,Weather Center 2014,2014-02-23 03:15:00,
2014-02-22 22:20:00,41.6,22.9,29.99,WSW,244,0.0,0.0,47,0.00,Fair,,0.00,Weather Center 2014,2014-02-23 03:20:00,
2014-02-22 22:25:00,41.5,22.8,29.99,SW,218,1.0,1.0,47,0.00,Fair,,0.00,Weather Center 2014,2014-02-23 03:25:00,
2014-02-22 22:30:00,41.5,22.8,29.99,South,177,1.0,1.0,47,0.00,Fair,,0.00,Weather Center 2014,2014-02-23 03:30:00,
2014-02-22 22:35:00,41.5,22.8,29.99,South,189,1.0,1.0,47,0.00,Fair,,0.00,Weather Center 2014,2014-02-23 03:35:00,
2014-02-22 22:40:00,41.3,23.1,29.99,SSW,194,0.0,0.0,48,0.00,Fair,,0.00,Weather Center 2014,2014-02-23 03:40:00,
2014-02-22 22:45:00,41.2,22.5,29.99,East,80,5.0,5.0,47,0.00,Fair,,0.00,Weather Center 2014,2014-02-23 03:45:00,
2014-02-22 22:50:00,41.1,22.9,29.99,SSE,151,2.0,2.0,48,0.00,Fair,,0.00,Weather Center 2014,2014-02-23 03:50:00,
2014-02-22 22:55:00,40.9,22.7,30.00,SSW,211,1.0,1.0,48,0.00,Fair,,0.00,Weather Center 2014,2014-02-23 03:55:00,
2014-02-22 23:00:00,40.9,23.2,30.00,WSW,241,0.0,0.0,49,0.00,Fair,,0.00,Weather Center 2014,2014-02-23 04:00:00,
2014-02-22 23:05:00,40.6,22.5,30.00,SW,221,0.0,0.0,48,0.00,Fair,,0.00,Weather Center 2014,2014-02-23 04:05:00,
2014-02-22 23:10:00,40.7,22.6,30.00,SSE,164,4.0,4.0,48,0.00,Fair,,0.00,Weather Center 2014,2014-02-23 04:10:00,
2014-02-22 23:15:00,40.7,23.0,30.00,East,100,1.0,1.0,49,0.00,Fair,,0.00,Weather Center 2014,2014-02-23 04:15:00,
2014-02-22 23:20:00,40.6,22.5,30.00,SW,236,0.0,0.0,48,0.00,Fair,,0.00,Weather Center 2014,2014-02-23 04:20:00,
2014-02-22 23:25:00,40.4,22.3,30.00,SW,234,0.0,0.0,48,0.00,Fair,,0.00,Weather Center 2014,2014-02-23 04:25:00,
2014-02-22 23:30:00,40.5,22.9,30.00,WSW,251,0.0,0.0,49,0.00,Fair,,0.00,Weather Center 2014,2014-02-23 04:30:00,
2014-02-22 23:35:00,40.2,22.6,30.00,SW,228,0.0,0.0,49,0.00,Fair,,0.00,Weather Center 2014,2014-02-23 04:35:00,
2014-02-22 23:40:00,40.2,23.1,30.01,SSE,162,2.0,2.0,50,0.00,Fair,,0.00,Weather Center 2014,2014-02-23 04:40:00,
2014-02-22 23:45:00,40.0,22.4,30.01,South,190,1.0,1.0,49,0.00,Fair,,0.00,Weather Center 2014,2014-02-23 04:45:00,
2014-02-22 23:50:00,40.3,22.7,30.01,SE,128,0.0,0.0,49,0.00,Fair,,0.00,Weather Center 2014,2014-02-23 04:50:00,
2014-02-22 23:55:00,40.3,22.7,30.01,SE,136,0.0,0.0,49,0.00,Fair,,0.00,Weather Center 2014,2014-02-23 04:55:00,